"Sample Date","Sample Time","Sample Value","Units","Flow Rate","Sample Interval","Number Channels","Micron Size 0","Counts/Channel 0","Micron Size 1","Counts/Channel 1","Micron Size 2","Counts/Channel 2","Micron Size 3","Counts/Channel 3","Micron Size 4","Counts/Channel 4","Micron Size 5","Counts/Channel 5","Micron Size 6","Counts/Channel 6","Micron Size 7","Counts/Channel 7","Micron Size 8","Counts/Channel 8","Micron Size 9","Counts/Channel 9","Micron Size 10","Counts/Channel 10","Micron Size 11","Counts/Channel 11","Micron Size 12","Counts/Channel 12","Micron Size 13","Counts/Channel 13","Micron Size 14","Counts/Channel 14","Micron Size 15","Counts/Channel 15","Micron Size 16","Counts/Channel 16","Micron Size 17","Counts/Channel 17","Micron Size 18","Counts/Channel 18","Micron Size 19","Counts/Channel 19","Micron Size 20","Counts/Channel 20","Micron Size 21","Counts/Channel 21","Micron Size 22","Counts/Channel 22","Micron Size 23","Counts/Channel 23","Micron Size 24","Counts/Channel 24","Micron Size 25","Counts/Channel 25","Micron Size 26","Counts/Channel 26","Micron Size 27","Counts/Channel 27","Micron Size 28","Counts/Channel 28","Micron Size 29","Counts/Channel 29","Micron Size 30","Counts/Channel 30","Micron Size 31","Counts/Channel 31"
"04/10/08","05:00:05",17248.000,"cc",28400.342,6.00,6,0.100,13583.000,0.200,1457.000,0.300,760.000,0.500,1006.000,1.000,442.000,5.000,0
"04/10/08","05:00:11",17382.000,"cc",28366.391,6.00,6,0.100,13654.000,0.200,1507.000,0.300,761.000,0.500,1026.000,1.000,433.000,5.000,1.000
"04/10/08","05:00:17",17994.000,"cc",28249.744,6.00,6,0.100,14240.000,0.200,1438.000,0.300,843.000,0.500,1020.000,1.000,453.000,5.000,0
"04/10/08","05:00:23",18082.000,"cc",28285.854,6.00,6,0.100,14244.000,0.200,1505.000,0.300,811.000,0.500,1044.000,1.000,477.000,5.000,1.000
"04/10/08","05:00:29",17081.000,"cc",28266.576,6.00,6,0.100,13301.000,0.200,1431.000,0.300,740.000,0.500,1069.000,1.000,540.000,5.000,0
"04/10/08","05:00:35",17340.000,"cc",28283.268,6.00,6,0.100,13467.000,0.200,1439.000,0.300,835.000,0.500,1059.000,1.000,540.000,5.000,0
"04/10/08","05:00:41",20013.000,"cc",28274.867,6.00,6,0.100,14662.000,0.200,2219.000,0.300,1241.000,0.500,1296.000,1.000,595.000,5.000,0
"04/10/08","05:00:47",17667.000,"cc",28334.000,6.00,6,0.100,13698.000,0.200,1478.000,0.300,813.000,0.500,1134.000,1.000,543.000,5.000,1.000
"04/10/08","05:00:53",18038.000,"cc",28340.916,6.00,6,0.100,14271.000,0.200,1489.000,0.300,796.000,0.500,1010.000,1.000,472.000,5.000,0
"04/10/08","05:00:59",18161.000,"cc",28365.318,6.00,6,0.100,14406.000,0.200,1471.000,0.300,796.000,0.500,1051.000,1.000,437.000,5.000,0
"04/10/08","05:01:05",17683.000,"cc",28261.879,6.00,6,0.100,13805.000,0.200,1491.000,0.300,806.000,0.500,1062.000,1.000,518.000,5.000,1.000
"04/10/08","05:01:11",17231.000,"cc",28299.840,6.00,6,0.100,13539.000,0.200,1382.000,0.300,820.000,0.500,1029.000,1.000,461.000,5.000,0
"04/10/08","05:01:17",17574.000,"cc",28322.158,6.00,6,0.100,13846.000,0.200,1404.000,0.300,820.000,0.500,1006.000,1.000,498.000,5.000,0
"04/10/08","05:01:23",18372.000,"cc",28362.947,6.00,6,0.100,14516.000,0.200,1501.000,0.300,794.000,0.500,1038.000,1.000,522.000,5.000,1.000
"04/10/08","05:01:29",19086.000,"cc",28382.682,6.00,6,0.100,15107.000,0.200,1568.000,0.300,826.000,0.500,1099.000,1.000,486.000,5.000,0
"04/10/08","05:01:35",21629.000,"cc",28370.166,6.00,6,0.100,16594.000,0.200,2096.000,0.300,1168.000,0.500,1225.000,1.000,546.000,5.000,0
"04/10/08","05:01:41",19496.000,"cc",28294.881,6.00,6,0.100,15637.000,0.200,1545.000,0.300,822.000,0.500,1007.000,1.000,485.000,5.000,0
"04/10/08","05:01:47",19278.000,"cc",28278.113,6.00,6,0.100,15487.000,0.200,1478.000,0.300,840.000,0.500,1008.000,1.000,465.000,5.000,0
"04/10/08","05:01:53",19389.000,"cc",28379.395,6.00,6,0.100,15660.000,0.200,1531.000,0.300,790.000,0.500,1013.000,1.000,395.000,5.000,0
"04/10/08","05:01:59",19345.000,"cc",28301.885,6.00,6,0.100,15528.000,0.200,1517.000,0.300,851.000,0.500,988.000,1.000,461.000,5.000,0
"04/10/08","05:02:05",19217.000,"cc",28348.389,6.00,6,0.100,15435.000,0.200,1532.000,0.300,841.000,0.500,946.000,1.000,463.000,5.000,0
"04/10/08","05:02:11",19459.000,"cc",28375.494,6.00,6,0.100,15763.000,0.200,1526.000,0.300,753.000,0.500,1003.000,1.000,414.000,5.000,0
"04/10/08","05:02:17",19235.000,"cc",28299.088,6.00,6,0.100,15363.000,0.200,1559.000,0.300,823.000,0.500,1001.000,1.000,489.000,5.000,0
"04/10/08","05:02:23",19016.000,"cc",28315.742,6.00,6,0.100,15204.000,0.200,1548.000,0.300,785.000,0.500,1000.000,1.000,479.000,5.000,0
"04/10/08","05:02:29",18738.000,"cc",28227.799,6.00,6,0.100,15048.000,0.200,1487.000,0.300,812.000,0.500,925.000,1.000,466.000,5.000,0
"04/10/08","05:02:35",18524.000,"cc",28225.682,6.00,6,0.100,14744.000,0.200,1477.000,0.300,830.000,0.500,1028.000,1.000,445.000,5.000,0
"04/10/08","05:02:41",18522.000,"cc",28296.924,6.00,6,0.100,14774.000,0.200,1488.000,0.300,807.000,0.500,1010.000,1.000,442.000,5.000,1.000
"04/10/08","05:02:47",17323.000,"cc",28325.066,6.00,6,0.100,13552.000,0.200,1408.000,0.300,778.000,0.500,1047.000,1.000,538.000,5.000,0
"04/10/08","05:02:53",17641.000,"cc",28280.121,6.00,6,0.100,13488.000,0.200,1620.000,0.300,936.000,0.500,1120.000,1.000,477.000,5.000,0
"04/10/08","05:02:59",17700.000,"cc",28311.391,6.00,6,0.100,13890.000,0.200,1487.000,0.300,825.000,0.500,1031.000,1.000,467.000,5.000,0
"04/10/08","05:03:05",16994.000,"cc",28347.734,6.00,6,0.100,13391.000,0.200,1375.000,0.300,741.000,0.500,1046.000,1.000,441.000,5.000,0
"04/10/08","05:03:11",16910.000,"cc",28342.848,6.00,6,0.100,13089.000,0.200,1463.000,0.300,800.000,0.500,1065.000,1.000,493.000,5.000,0
"04/10/08","05:03:17",17411.000,"cc",28345.553,6.00,6,0.100,13557.000,0.200,1459.000,0.300,771.000,0.500,1127.000,1.000,497.000,5.000,0
"04/10/08","05:03:23",17193.000,"cc",28326.334,6.00,6,0.100,13373.000,0.200,1485.000,0.300,807.000,0.500,1027.000,1.000,501.000,5.000,0
"04/10/08","05:03:29",16869.000,"cc",28290.955,6.00,6,0.100,13130.000,0.200,1366.000,0.300,812.000,0.500,1038.000,1.000,523.000,5.000,0
"04/10/08","05:03:35",16693.000,"cc",28293.182,6.00,6,0.100,13118.000,0.200,1408.000,0.300,760.000,0.500,969.000,1.000,438.000,5.000,0
"04/10/08","05:03:41",16702.000,"cc",28324.576,6.00,6,0.100,13085.000,0.200,1398.000,0.300,736.000,0.500,1027.000,1.000,456.000,5.000,0
"04/10/08","05:03:47",16392.000,"cc",28372.500,6.00,6,0.100,12705.000,0.200,1354.000,0.300,779.000,0.500,1042.000,1.000,512.000,5.000,0
"04/10/08","05:03:53",15619.000,"cc",28305.982,6.00,6,0.100,12083.000,0.200,1287.000,0.300,751.000,0.500,1049.000,1.000,449.000,5.000,0
"04/10/08","05:03:59",16020.000,"cc",28235.414,6.00,6,0.100,12409.000,0.200,1316.000,0.300,769.000,0.500,1048.000,1.000,478.000,5.000,0
"04/10/08","05:04:05",15771.000,"cc",28276.033,6.00,6,0.100,12186.000,0.200,1307.000,0.300,763.000,0.500,1006.000,1.000,509.000,5.000,0
"04/10/08","05:04:11",16267.000,"cc",28289.971,6.00,6,0.100,12475.000,0.200,1465.000,0.300,790.000,0.500,1084.000,1.000,453.000,5.000,0
"04/10/08","05:04:17",16971.000,"cc",28339.344,6.00,6,0.100,12857.000,0.200,1582.000,0.300,916.000,0.500,1152.000,1.000,464.000,5.000,0
"04/10/08","05:04:23",16418.000,"cc",28319.871,6.00,6,0.100,12587.000,0.200,1528.000,0.300,810.000,0.500,1030.000,1.000,463.000,5.000,0
"04/10/08","05:04:29",16069.000,"cc",28318.787,6.00,6,0.100,12238.000,0.200,1472.000,0.300,825.000,0.500,1030.000,1.000,504.000,5.000,0
"04/10/08","05:04:35",15765.000,"cc",28309.031,6.00,6,0.100,12247.000,0.200,1359.000,0.300,769.000,0.500,976.000,1.000,414.000,5.000,0
"04/10/08","05:04:41",15746.000,"cc",28295.342,6.00,6,0.100,12199.000,0.200,1322.000,0.300,741.000,0.500,1016.000,1.000,467.000,5.000,1.000
"04/10/08","05:04:47",21295.000,"cc",28346.160,6.00,6,0.100,14763.000,0.200,2692.000,0.300,1581.000,0.500,1636.000,1.000,623.000,5.000,0
"04/10/08","05:04:53",16076.000,"cc",28331.504,6.00,6,0.100,12339.000,0.200,1428.000,0.300,747.000,0.500,1090.000,1.000,472.000,5.000,0
"04/10/08","05:04:59",16303.000,"cc",28370.590,6.00,6,0.100,12336.000,0.200,1527.000,0.300,888.000,0.500,1047.000,1.000,505.000,5.000,0
"04/10/08","05:05:05",16721.000,"cc",28334.811,6.00,6,0.100,12470.000,0.200,1685.000,0.300,1010.000,0.500,1084.000,1.000,472.000,5.000,0
"04/10/08","05:05:11",15023.000,"cc",28312.107,6.00,6,0.100,11577.000,0.200,1264.000,0.300,755.000,0.500,996.000,1.000,430.000,5.000,1.000
"04/10/08","05:05:17",15367.000,"cc",28333.070,6.00,6,0.100,11760.000,0.200,1343.000,0.300,774.000,0.500,1022.000,1.000,468.000,5.000,0
"04/10/08","05:05:23",15124.000,"cc",28264.861,6.00,6,0.100,11647.000,0.200,1351.000,0.300,746.000,0.500,936.000,1.000,444.000,5.000,0
"04/10/08","05:05:29",15127.000,"cc",28247.158,6.00,6,0.100,11713.000,0.200,1257.000,0.300,740.000,0.500,999.000,1.000,418.000,5.000,0
"04/10/08","05:05:35",14854.000,"cc",28339.731,6.00,6,0.100,11394.000,0.200,1318.000,0.300,759.000,0.500,919.000,1.000,464.000,5.000,0
"04/10/08","05:05:41",15615.000,"cc",28343.231,6.00,6,0.100,11949.000,0.200,1412.000,0.300,796.000,0.500,985.000,1.000,473.000,5.000,0
"04/10/08","05:05:47",14913.000,"cc",28378.389,6.00,6,0.100,11446.000,0.200,1288.000,0.300,746.000,0.500,994.000,1.000,439.000,5.000,0
"04/10/08","05:05:53",14619.000,"cc",28324.137,6.00,6,0.100,11221.000,0.200,1284.000,0.300,709.000,0.500,977.000,1.000,428.000,5.000,0
"04/10/08","05:05:59",14535.000,"cc",28334.766,6.00,6,0.100,11065.000,0.200,1307.000,0.300,762.000,0.500,997.000,1.000,404.000,5.000,0
"04/10/08","05:06:05",20326.000,"cc",28280.594,6.00,6,0.100,14046.000,0.200,2631.000,0.300,1567.000,0.500,1510.000,1.000,572.000,5.000,0
"04/10/08","05:06:11",15041.000,"cc",28262.713,6.00,6,0.100,11495.000,0.200,1342.000,0.300,769.000,0.500,954.000,1.000,481.000,5.000,0
"04/10/08","05:06:17",15183.000,"cc",28305.926,6.00,6,0.100,11683.000,0.200,1306.000,0.300,744.000,0.500,986.000,1.000,464.000,5.000,0
"04/10/08","05:06:23",15224.000,"cc",28291.938,6.00,6,0.100,11745.000,0.200,1296.000,0.300,797.000,0.500,945.000,1.000,441.000,5.000,0
"04/10/08","05:06:29",15283.000,"cc",28362.129,6.00,6,0.100,11844.000,0.200,1299.000,0.300,773.000,0.500,946.000,1.000,421.000,5.000,0
"04/10/08","05:06:35",15158.000,"cc",28352.119,6.00,6,0.100,11495.000,0.200,1353.000,0.300,859.000,0.500,998.000,1.000,452.000,5.000,1.000
"04/10/08","05:06:41",14719.000,"cc",28361.236,6.00,6,0.100,11173.000,0.200,1272.000,0.300,781.000,0.500,1015.000,1.000,478.000,5.000,0
"04/10/08","05:06:47",14526.000,"cc",28268.662,6.00,6,0.100,11045.000,0.200,1270.000,0.300,786.000,0.500,974.000,1.000,450.000,5.000,1.000
"04/10/08","05:06:53",14235.000,"cc",28313.906,6.00,6,0.100,10793.000,0.200,1227.000,0.300,783.000,0.500,988.000,1.000,444.000,5.000,0
"04/10/08","05:06:59",14256.000,"cc",28325.311,6.00,6,0.100,10812.000,0.200,1271.000,0.300,762.000,0.500,974.000,1.000,437.000,5.000,0
"04/10/08","05:07:05",15662.000,"cc",28331.344,6.00,6,0.100,11355.000,0.200,1695.000,0.300,984.000,0.500,1119.000,1.000,509.000,5.000,0
"04/10/08","05:07:11",13871.000,"cc",28265.897,6.00,6,0.100,10484.000,0.200,1232.000,0.300,735.000,0.500,959.000,1.000,461.000,5.000,0
"04/10/08","05:07:17",14016.000,"cc",28326.406,6.00,6,0.100,10563.000,0.200,1213.000,0.300,764.000,0.500,1018.000,1.000,458.000,5.000,0
"04/10/08","05:07:23",14973.000,"cc",28353.904,6.00,6,0.100,11419.000,0.200,1338.000,0.300,746.000,0.500,994.000,1.000,476.000,5.000,0
"04/10/08","05:07:29",16407.000,"cc",28242.545,6.00,6,0.100,12501.000,0.200,1474.000,0.300,876.000,0.500,1078.000,1.000,478.000,5.000,0
"04/10/08","05:07:35",16030.000,"cc",28376.094,6.00,6,0.100,12531.000,0.200,1289.000,0.300,779.000,0.500,993.000,1.000,438.000,5.000,0
"04/10/08","05:07:41",20558.000,"cc",28317.371,6.00,6,0.100,14947.000,0.200,2331.000,0.300,1357.000,0.500,1331.000,1.000,592.000,5.000,0
"04/10/08","05:07:47",16420.000,"cc",28299.004,6.00,6,0.100,12977.000,0.200,1320.000,0.300,769.000,0.500,915.000,1.000,439.000,5.000,0
"04/10/08","05:07:53",16912.000,"cc",28318.877,6.00,6,0.100,13285.000,0.200,1397.000,0.300,737.000,0.500,1023.000,1.000,470.000,5.000,0
"04/10/08","05:07:59",16858.000,"cc",28403.340,6.00,6,0.100,13271.000,0.200,1355.000,0.300,811.000,0.500,963.000,1.000,458.000,5.000,0
"04/10/08","05:08:05",17111.000,"cc",28315.496,6.00,6,0.100,13406.000,0.200,1426.000,0.300,779.000,0.500,1044.000,1.000,456.000,5.000,0
"04/10/08","05:08:11",16629.000,"cc",28286.264,6.00,6,0.100,13085.000,0.200,1373.000,0.300,762.000,0.500,975.000,1.000,434.000,5.000,0
"04/10/08","05:08:17",16792.000,"cc",28195.193,6.00,6,0.100,13256.000,0.200,1357.000,0.300,729.000,0.500,995.000,1.000,455.000,5.000,0
"04/10/08","05:08:23",17252.000,"cc",28297.926,6.00,6,0.100,13461.000,0.200,1423.000,0.300,825.000,0.500,1057.000,1.000,486.000,5.000,0
"04/10/08","05:08:29",16919.000,"cc",28347.117,6.00,6,0.100,13269.000,0.200,1396.000,0.300,810.000,0.500,982.000,1.000,462.000,5.000,0
"04/10/08","05:08:35",16806.000,"cc",28380.750,6.00,6,0.100,13188.000,0.200,1362.000,0.300,782.000,0.500,1046.000,1.000,428.000,5.000,0
"04/10/08","05:08:41",20160.000,"cc",28308.373,6.00,6,0.100,14777.000,0.200,2191.000,0.300,1246.000,0.500,1358.000,1.000,588.000,5.000,0
"04/10/08","05:08:47",16825.000,"cc",28342.018,6.00,6,0.100,13159.000,0.200,1419.000,0.300,814.000,0.500,987.000,1.000,446.000,5.000,0
"04/10/08","05:08:53",16848.000,"cc",28334.287,6.00,6,0.100,13073.000,0.200,1462.000,0.300,841.000,0.500,988.000,1.000,484.000,5.000,0
"04/10/08","05:08:59",17264.000,"cc",28285.193,6.00,6,0.100,13619.000,0.200,1359.000,0.300,784.000,0.500,1031.000,1.000,471.000,5.000,0
"04/10/08","05:09:05",17193.000,"cc",28327.363,6.00,6,0.100,13525.000,0.200,1392.000,0.300,790.000,0.500,1022.000,1.000,464.000,5.000,0
"04/10/08","05:09:11",17429.000,"cc",28319.959,6.00,6,0.100,13720.000,0.200,1461.000,0.300,780.000,0.500,982.000,1.000,486.000,5.000,0
"04/10/08","05:09:17",17673.000,"cc",28226.088,6.00,6,0.100,13722.000,0.200,1581.000,0.300,874.000,0.500,1044.000,1.000,452.000,5.000,0
"04/10/08","05:09:23",18903.000,"cc",28401.205,6.00,6,0.100,14542.000,0.200,1696.000,0.300,981.000,0.500,1174.000,1.000,510.000,5.000,0
"04/10/08","05:09:29",17635.000,"cc",28353.426,6.00,6,0.100,13934.000,0.200,1454.000,0.300,760.000,0.500,990.000,1.000,497.000,5.000,0
"04/10/08","05:09:35",17225.000,"cc",28400.670,6.00,6,0.100,13545.000,0.200,1403.000,0.300,828.000,0.500,1022.000,1.000,427.000,5.000,0
"04/10/08","05:09:41",18991.000,"cc",28145.184,6.00,6,0.100,14133.000,0.200,1906.000,0.300,1108.000,0.500,1293.000,1.000,551.000,5.000,0
"04/10/08","05:09:47",17412.000,"cc",28241.441,6.00,6,0.100,13700.000,0.200,1474.000,0.300,805.000,0.500,992.000,1.000,440.000,5.000,1.000
"04/10/08","05:09:53",17131.000,"cc",28338.154,6.00,6,0.100,13505.000,0.200,1349.000,0.300,793.000,0.500,1032.000,1.000,451.000,5.000,1.000
"04/10/08","05:09:59",17527.000,"cc",28340.633,6.00,6,0.100,13544.000,0.200,1560.000,0.300,876.000,0.500,1053.000,1.000,494.000,5.000,0
"04/10/08","05:10:05",16871.000,"cc",28302.500,6.00,6,0.100,13299.000,0.200,1351.000,0.300,777.000,0.500,1003.000,1.000,441.000,5.000,0
"04/10/08","05:10:11",16605.000,"cc",28292.408,6.00,6,0.100,13011.000,0.200,1386.000,0.300,799.000,0.500,929.000,1.000,480.000,5.000,0
"04/10/08","05:10:17",16296.000,"cc",28357.897,6.00,6,0.100,12818.000,0.200,1340.000,0.300,759.000,0.500,947.000,1.000,432.000,5.000,0
"04/10/08","05:10:23",16124.000,"cc",28342.744,6.00,6,0.100,12520.000,0.200,1396.000,0.300,763.000,0.500,955.000,1.000,490.000,5.000,0
"04/10/08","05:10:29",15875.000,"cc",28370.350,6.00,6,0.100,12266.000,0.200,1339.000,0.300,818.000,0.500,965.000,1.000,487.000,5.000,0
"04/10/08","05:10:35",16698.000,"cc",28253.213,6.00,6,0.100,12732.000,0.200,1488.000,0.300,895.000,0.500,1078.000,1.000,505.000,5.000,0
"04/10/08","05:10:41",19643.000,"cc",28280.729,6.00,6,0.100,14179.000,0.200,2172.000,0.300,1313.000,0.500,1399.000,1.000,580.000,5.000,0
"04/10/08","05:10:47",15823.000,"cc",28287.691,6.00,6,0.100,12450.000,0.200,1277.000,0.300,762.000,0.500,939.000,1.000,395.000,5.000,0
"04/10/08","05:10:53",16962.000,"cc",28261.656,6.00,6,0.100,12853.000,0.200,1599.000,0.300,892.000,0.500,1108.000,1.000,510.000,5.000,0
"04/10/08","05:10:59",18152.000,"cc",28367.643,6.00,6,0.100,13516.000,0.200,1896.000,0.300,1078.000,0.500,1129.000,1.000,531.000,5.000,2.000
"04/10/08","05:11:05",15853.000,"cc",28339.969,6.00,6,0.100,12360.000,0.200,1311.000,0.300,775.000,0.500,993.000,1.000,414.000,5.000,0
"04/10/08","05:11:11",15786.000,"cc",28239.180,6.00,6,0.100,12204.000,0.200,1388.000,0.300,833.000,0.500,914.000,1.000,446.000,5.000,1.000
"04/10/08","05:11:17",17633.000,"cc",28341.533,6.00,6,0.100,13147.000,0.200,1815.000,0.300,1043.000,0.500,1162.000,1.000,466.000,5.000,0
"04/10/08","05:11:23",15755.000,"cc",28344.947,6.00,6,0.100,12239.000,0.200,1370.000,0.300,756.000,0.500,960.000,1.000,430.000,5.000,0
"04/10/08","05:11:29",15660.000,"cc",28338.652,6.00,6,0.100,12130.000,0.200,1352.000,0.300,772.000,0.500,1001.000,1.000,405.000,5.000,0
"04/10/08","05:11:35",16242.000,"cc",28297.459,6.00,6,0.100,12457.000,0.200,1449.000,0.300,888.000,0.500,1012.000,1.000,436.000,5.000,0
"04/10/08","05:11:41",28245.000,"cc",28404.879,6.00,6,0.100,18265.000,0.200,4374.000,0.300,2532.000,0.500,2243.000,1.000,830.000,5.000,1.000
"04/10/08","05:11:47",15557.000,"cc",28325.186,6.00,6,0.100,12042.000,0.200,1327.000,0.300,771.000,0.500,967.000,1.000,450.000,5.000,0
"04/10/08","05:11:53",15770.000,"cc",28258.174,6.00,6,0.100,12213.000,0.200,1414.000,0.300,788.000,0.500,958.000,1.000,396.000,5.000,1.000
"04/10/08","05:11:59",20429.000,"cc",28283.893,6.00,6,0.100,14054.000,0.200,2629.000,0.300,1521.000,0.500,1537.000,1.000,688.000,5.000,0
"04/10/08","05:12:05",18797.000,"cc",28328.721,6.00,6,0.100,13280.000,0.200,2210.000,0.300,1403.000,0.500,1382.000,1.000,522.000,5.000,0
"04/10/08","05:12:11",21370.000,"cc",28273.443,6.00,6,0.100,14645.000,0.200,2769.000,0.300,1732.000,0.500,1570.000,1.000,654.000,5.000,0
"04/10/08","05:12:17",15762.000,"cc",28320.789,6.00,6,0.100,11980.000,0.200,1461.000,0.300,889.000,0.500,1000.000,1.000,432.000,5.000,0
"04/10/08","05:12:23",14629.000,"cc",28308.389,6.00,6,0.100,11302.000,0.200,1166.000,0.300,744.000,0.500,953.000,1.000,464.000,5.000,0
"04/10/08","05:12:29",15580.000,"cc",28334.732,6.00,6,0.100,11918.000,0.200,1358.000,0.300,778.000,0.500,1057.000,1.000,469.000,5.000,0
"04/10/08","05:12:35",16032.000,"cc",28282.582,6.00,6,0.100,12407.000,0.200,1433.000,0.300,774.000,0.500,951.000,1.000,467.000,5.000,0
"04/10/08","05:12:41",18155.000,"cc",28308.920,6.00,6,0.100,13276.000,0.200,1948.000,0.300,1199.000,0.500,1184.000,1.000,547.000,5.000,1.000
"04/10/08","05:12:47",16931.000,"cc",28377.563,6.00,6,0.100,12807.000,0.200,1637.000,0.300,903.000,0.500,1097.000,1.000,487.000,5.000,0
"04/10/08","05:12:53",16772.000,"cc",28329.566,6.00,6,0.100,12754.000,0.200,1612.000,0.300,890.000,0.500,1058.000,1.000,458.000,5.000,0
"04/10/08","05:12:59",18360.000,"cc",28319.037,6.00,6,0.100,13548.000,0.200,1925.000,0.300,1080.000,0.500,1268.000,1.000,539.000,5.000,0
"04/10/08","05:13:05",18306.000,"cc",28360.600,6.00,6,0.100,13655.000,0.200,1844.000,0.300,1090.000,0.500,1162.000,1.000,555.000,5.000,0
"04/10/08","05:13:11",17502.000,"cc",28248.398,6.00,6,0.100,13158.000,0.200,1645.000,0.300,1001.000,0.500,1161.000,1.000,537.000,5.000,0
"04/10/08","05:13:17",16312.000,"cc",28319.789,6.00,6,0.100,12630.000,0.200,1426.000,0.300,760.000,0.500,1018.000,1.000,478.000,5.000,0
"04/10/08","05:13:23",16149.000,"cc",28320.531,6.00,6,0.100,12569.000,0.200,1380.000,0.300,767.000,0.500,1010.000,1.000,423.000,5.000,0
"04/10/08","05:13:29",16142.000,"cc",28346.182,6.00,6,0.100,12416.000,0.200,1481.000,0.300,850.000,0.500,963.000,1.000,431.000,5.000,1.000
"04/10/08","05:13:35",15787.000,"cc",28369.676,6.00,6,0.100,12326.000,0.200,1320.000,0.300,768.000,0.500,932.000,1.000,441.000,5.000,0
"04/10/08","05:13:41",15140.000,"cc",28302.455,6.00,6,0.100,11774.000,0.200,1234.000,0.300,772.000,0.500,941.000,1.000,419.000,5.000,0
"04/10/08","05:13:47",15092.000,"cc",28360.068,6.00,6,0.100,11644.000,0.200,1301.000,0.300,765.000,0.500,956.000,1.000,425.000,5.000,1.000
"04/10/08","05:13:53",15367.000,"cc",28343.473,6.00,6,0.100,11965.000,0.200,1314.000,0.300,726.000,0.500,944.000,1.000,418.000,5.000,0
"04/10/08","05:13:59",15185.000,"cc",28296.025,6.00,6,0.100,11753.000,0.200,1336.000,0.300,746.000,0.500,943.000,1.000,407.000,5.000,0
"04/10/08","05:14:05",15028.000,"cc",28258.637,6.00,6,0.100,11562.000,0.200,1280.000,0.300,763.000,0.500,960.000,1.000,463.000,5.000,0
"04/10/08","05:14:11",14709.000,"cc",28335.904,6.00,6,0.100,11369.000,0.200,1232.000,0.300,733.000,0.500,942.000,1.000,433.000,5.000,0
"04/10/08","05:14:17",14714.000,"cc",28320.242,6.00,6,0.100,11303.000,0.200,1272.000,0.300,718.000,0.500,988.000,1.000,433.000,5.000,0
"04/10/08","05:14:23",14321.000,"cc",28298.619,6.00,6,0.100,10968.000,0.200,1230.000,0.300,750.000,0.500,929.000,1.000,444.000,5.000,0
"04/10/08","05:14:29",13810.000,"cc",28272.137,6.00,6,0.100,10522.000,0.200,1228.000,0.300,756.000,0.500,903.000,1.000,401.000,5.000,0
"04/10/08","05:14:35",13820.000,"cc",28319.023,6.00,6,0.100,10457.000,0.200,1251.000,0.300,748.000,0.500,929.000,1.000,435.000,5.000,0
"04/10/08","05:14:41",14109.000,"cc",28372.953,6.00,6,0.100,10877.000,0.200,1151.000,0.300,767.000,0.500,904.000,1.000,410.000,5.000,0
"04/10/08","05:14:47",14367.000,"cc",28334.150,6.00,6,0.100,11078.000,0.200,1175.000,0.300,690.000,0.500,981.000,1.000,443.000,5.000,0
"04/10/08","05:14:53",14455.000,"cc",28286.451,6.00,6,0.100,11099.000,0.200,1271.000,0.300,771.000,0.500,915.000,1.000,399.000,5.000,0
"04/10/08","05:14:59",14485.000,"cc",28261.121,6.00,6,0.100,11065.000,0.200,1284.000,0.300,739.000,0.500,971.000,1.000,426.000,5.000,0
"04/10/08","05:15:05",13890.000,"cc",28315.623,6.00,6,0.100,10645.000,0.200,1171.000,0.300,724.000,0.500,928.000,1.000,421.000,5.000,1.000
"04/10/08","05:15:11",14242.000,"cc",28293.418,6.00,6,0.100,10947.000,0.200,1245.000,0.300,724.000,0.500,874.000,1.000,452.000,5.000,0
"04/10/08","05:15:17",14041.000,"cc",28317.818,6.00,6,0.100,10704.000,0.200,1207.000,0.300,729.000,0.500,974.000,1.000,427.000,5.000,0
"04/10/08","05:15:23",15364.000,"cc",28283.445,6.00,6,0.100,11552.000,0.200,1484.000,0.300,871.000,0.500,1020.000,1.000,437.000,5.000,0
"04/10/08","05:15:29",14999.000,"cc",28413.203,6.00,6,0.100,11547.000,0.200,1317.000,0.300,723.000,0.500,978.000,1.000,434.000,5.000,0
"04/10/08","05:15:35",16872.000,"cc",28273.197,6.00,6,0.100,13067.000,0.200,1478.000,0.300,840.000,0.500,1010.000,1.000,477.000,5.000,0
"04/10/08","05:15:41",16786.000,"cc",28358.748,6.00,6,0.100,13315.000,0.200,1393.000,0.300,735.000,0.500,919.000,1.000,424.000,5.000,0
"04/10/08","05:15:47",17096.000,"cc",28297.982,6.00,6,0.100,13396.000,0.200,1453.000,0.300,815.000,0.500,989.000,1.000,443.000,5.000,0
"04/10/08","05:15:53",17146.000,"cc",28316.713,6.00,6,0.100,13474.000,0.200,1382.000,0.300,815.000,0.500,1008.000,1.000,466.000,5.000,1.000
"04/10/08","05:15:59",17046.000,"cc",28320.596,6.00,6,0.100,13329.000,0.200,1495.000,0.300,717.000,0.500,1019.000,1.000,486.000,5.000,0
"04/10/08","05:16:05",17025.000,"cc",28324.711,6.00,6,0.100,13367.000,0.200,1362.000,0.300,856.000,0.500,979.000,1.000,461.000,5.000,0
"04/10/08","05:16:11",17729.000,"cc",28225.740,6.00,6,0.100,13649.000,0.200,1606.000,0.300,887.000,0.500,1090.000,1.000,497.000,5.000,0
"04/10/08","05:16:17",21144.000,"cc",28327.106,6.00,6,0.100,15289.000,0.200,2395.000,0.300,1524.000,0.500,1397.000,1.000,539.000,5.000,0
"04/10/08","05:16:23",16635.000,"cc",28307.176,6.00,6,0.100,12767.000,0.200,1552.000,0.300,898.000,0.500,1009.000,1.000,409.000,5.000,0
"04/10/08","05:16:29",16131.000,"cc",28305.338,6.00,6,0.100,12524.000,0.200,1441.000,0.300,811.000,0.500,943.000,1.000,412.000,5.000,0